Regional Weather Roundup
Issued by NWS

Home | Current Version | Previous Version | Graphics & Text | Print | Product List | Glossary On
Versions: 1 2 3 4 5 6 7 8 9 10 11 12 13 14 15 16 17 18 19 20 21 22 23 24 25 26 27 28 29 30 31 32 33 34 35 36 37 38 39 40 41 42 43 44 45 46 47 48 49 50
000
ASUS43 KLMK 210310
RWRKY
KENTUCKY REGIONAL WEATHER ROUNDUP
NATIONAL WEATHER SERVICE LOUISVILLE KY
1000 PM EST SAT DEC 20 2014

NOTE "FAIR" INDICATES FEW OR NO CLOUDS BELOW 12,000 FEET
WITH NO SIGNIFICANT WEATHER AND/OR OBSTRUCTIONS TO VISIBILITY.

KYZ001>023-026-027-061>063-070>075-210400-
WESTERN AND SOUTH CENTRAL KENTUCKY

CITY           SKY/WX    TMP DP  RH WIND       PRES   REMARKS
PADUCAH        CLEAR     30  27  88 CALM      30.27S
HENDERSON      CLEAR     27  21  80 CALM      30.30S
OWENSBORO      CLEAR     32  27  82 NE5       30.30R WCI  27
HOPKINSVILLE   CLEAR     31  26  83 N2        30.28R
BOWLING GREEN  CLEAR     29  24  82 NE3       30.28S
GLASGOW        CLEAR     28  25  87 CALM      30.27R
$$

KYZ024-025-028>034-038-045-046-053-210400-
NORTH CENTRAL KENTUCKY

CITY           SKY/WX    TMP DP  RH WIND       PRES   REMARKS
LOUISVILLE/SDF CLOUDY    31  25  78 N3        30.30S
LOUISVILLE/LOU CLEAR     29  25  85 CALM      30.30S
FORT KNOX      CLEAR     28  24  86 NE5       30.27S WCI  22
$$

KYZ035>037-039>044-047>052-055>060-089>105-210400-
NORTHEAST KENTUCKY

CITY           SKY/WX    TMP DP  RH WIND       PRES   REMARKS
LEXINGTON      CLEAR     28  25  88 CALM      30.27F
COVINGTON      CLOUDY    30  25  80 E3        30.28F HAZE
FRANKFORT      CLEAR     27  23  85 CALM      30.28S
$$

KYZ054-064>069-076>088-106>120-210400-
SOUTHEAST KENTUCKY

CITY           SKY/WX    TMP DP  RH WIND       PRES   REMARKS
JACKSON        PTCLDY    30  23  75 NE3       30.25S
LONDON         CLEAR     31  24  75 CALM      30.25F
SOMERSET       CLEAR     30  25  80 CALM      30.28S
MIDDLESBORO    CLEAR     32  29  89 CALM      30.26R
MONTICELLO     CLEAR     28  24  85 CALM      30.29S
$$




USA.gov is the U.S. government's official web portal to all federal, state and local government web resources and services.